Погода в Томске

Погода в Томске : погода сейчас, прогноз погоды и архив. Всё, что Вы хотите узнать о погоде в Томске!

Хотите узнать прогноз погоды в Томске? Тогда Вам сюда: Погода в Томске

Поиск расширенной информации на нашем сайте:

Полезная информация:

Другие новости

Новости СМИ2

Главная страница сайта

Новости сайта

03.07.2017

Напоминаем, что на нашем специализированном сайте Метеоцентр.Азия вы можете получить высокодетализированные автоматические прогнозы погоды по пунктам России, СНГ и мира в авиационном формате (включающие направление и скорость ветра, видимость, явления погоды, количество и форму облачности, нижнюю и верхнюю границу облачности).

Рекомендуем:

Погода в Томске - сегодня

Время (UTC), дата Ветер
(°,м/с) 
Видим.   Явления Облачность Т
(°С)
Тd
(°С)
f(%) Тe
(°С)
Pmin
(гПа)
dP
(гПа)
Po
(мм)
O2
(г/м3)
Тmin Tmax R s Состояние
почвы
12 15.07.19 360 (С) 20000 м    ясно 
+22.9 +9.5 43 +24  1010  0.2  746  275    +24.1       
15 15.07.19 тихо ()   20000 м    ясно 
+18 +11.7 67 +22  1010.3  746  280           
18 15.07.19 010 (С) 20000 м    9/0 средняя 
[Ac trans]
+16.2 +12 76 +22  1009.5  -0.9  745  281           
21 15.07.19 360 (С) 20000 м    10/0 средняя 
[Ac und]
+17.5 +12.1 71 +23  1008.1  -1.2  744  279           
00 16.07.19 350 (С) 20000 м    10/0 средняя 
[Ac und]
+17.1 +12.6 75 +24  1007.6  -0.6  743  279  +16.2        сухая 
03 16.07.19 300 (СЗ) 20000 м  слаб. ливневой дождь  10/10 540 м кучево-дожд. 
[Cb cap]
+17.3 +13.6 79 +26  1006.5  -1  743  279           
06 16.07.19 300 (СЗ) 20000 м  {ливн. осадки}  10/10 500 м 
[Sc]
+17.5 +14.9 85 +28  1004.9  -1.5  742  278           
09 16.07.19 тихо ()   20000 м  слаб. ливневой дождь  10/10 480 м кучево-дожд. 
[Cb cap]
+17.7 +15.5 87 +28  1004.4  -0.6  741  277           
12 16.07.19 110 (В) 20000 м  {ливн. осадки}  8/5 300 м кучево-дожд., средняя 
[Cb cap|Ac As]
+19 +15.9 82 +32  1004.1  -0.2  741  276    +19.2  0.5     
15 16.07.19 тихо ()   20000 м  в посл. час ливневой дождь  6/3 300 м кучево-дожд., верхняя 
[Cb cap|Ci fib]
+16.5 +15.3 93 +26  1004.4  0.2  741  278           
18 16.07.19 030 (СВ) 20000 м  {ливн. осадки}  10/0 верхняя 
[Ci fib]
+14.3 +13.3 94 +22  1004  -0.5  741  281           
21 16.07.19 030 (СВ) 20000 м  слаб. ливневой дождь  10/6 300 м кучево-дожд., средняя 
[Cb cap|Ac und]
+14.2 +13.3 94 +21  1003.6  -0.4  740  281           
00 17.07.19 040 (СВ) 20000 м  слаб. ливневой дождь  10/3 600 м кучево-дожд., средняя 
[Cb cap|Ac und]
+14.6 +13.8 95 +23  1003.7  740  280  +14    0.9    влажная 
03 17.07.19 040 (СВ) 20000 м  {ливн. осадки}  10/6 600 м кучево-дожд., средняя 
[Cb cap|Ac trans]
+16.9 +15.4 91 +28  1003.5  740  278           
06 17.07.19 тихо ()   20000 м  в посл. час ливневой дождь  10/8 800 м кучево-дожд., средняя 
[Cb cap|Ac trans]
+17.9 +16.7 93 +30  1003.5  0.1  741  276           
09 17.07.19 040 (СВ) 20000 м  в посл. час ливневой дождь  10/10 800 м кучево-дожд. 
[Cb cap]
+20.7 +15.9 74 +31  1003.1  -0.3  740  274           
12 17.07.19 040 (СВ) 20000 м  {гроза, ливн. осадки}  10/8 700 м кучево-дожд., средняя 
[Cb cap|Ac trans]
+18.1 +17.2 94 +33  1004.3  741  276    +22.5  11     
15 17.07.19 030 (СВ) 20000 м    10/6 600 м средняя 
[Sc diur, vesp|Ac trans]
+17.3 +16.4 94 +31  1004.6  0.3  741  277           
18 17.07.19 тихо ()   20000 м    10/0 средняя 
[As op]
+15.8 +15 95 +25  1004.5  -0.2  741  279           
21 17.07.19 тихо ()   20000 м    10/0 верхняя 
[Ci fib]
+14.9 +14.2 96 +23  1004.2  -0.3  741  280           
00 18.07.19 тихо ()   0500 м  туман  ?/? 100 
+14.5 +13.8 96 +21  1004.5  0.3  741  281  +14.2        влажная 
03 18.07.19 300 (СЗ) 10 км  в посл. час туман  10/10 270 м 
[St]
+17.4 +16.8 96 +31  1004.5  0.1  741  277           
06 18.07.19 270 (З) 20000 м  {туман}  10/4 600 м верхняя 
[Cu hum|Ci fib]
+21.5 +15.6 69 +32  1004  -0.2  741  273           
09 18.07.19 220 (ЮЗ) 20000 м    8/8 600 м 
[Cu med, cong]
+25 +13.8 50 +32  1003.3  -0.6  741  271           
12 18.07.19 тихо ()   20000 м    10/10 480 м кучево-дожд. 
[Cb cap]
+24.9 +14.7 53 +33  1003.5  0.2  741  271    +26       
Время (UTC), дата Ветер
(°,м/с) 
Видим.   Явления Облачность Т
(°С)
Тd
(°С)
f(%) Тe
(°С)
Pmin
(гПа)
dP
(гПа)
Po
(мм)
O2
(г/м3)
Тmin Tmax R s Состояние
почвы

Для получения пояснительной информации подведите курсор к названию столбца.

ПОГОДА в Томске - архив

Всё, что Вы хотите узнать о погоде в Томске - удобно и подробно!

Выберите нужную дату (начиная с 1 января 2018* года) и нажмите кнопку "Найти".
Будут отображены архивные сводки погоды по пункту Томск, начиная с указанной даты.


Отображать данные в формате CSV (для использования в таблицах Excel)


Внимание! Наш архив погоды предназначен исключительно для личного некоммерческого использования в познавательных целях. Если Вам необходимы официальные справки о состоянии погоды (для производственных, юридических, коммерческих и т.п. целей), обращайтесь в органы Росгидромета.

*Примечание: данная дата относится к архиву по метеостанциям СССР (Россия, СНГ, Балтия).
Архив по метеостанциям Зарубежной Европы и Азии (кроме Китая) хранится 10 дней, по другим регионам земного шара (Китай, Африка, Америка, Австралия, Океания) - 1 день.

Томск - район местоположения метеостанции


Название, широта, долгота, высота метеостанции:
Томск 56.5°ш. 84.9°д. 139 м над ур. моря [Российская Федерация]

Дополнительная информация

В oтличие oт бoльшинства пoгoдных сайтoв мы публикуем пoдрoбную метеoинфoрмацию в детальнoм прoфессиoнальнoм фoрмате.

Характеристики температуры и влажнoсти вoздуха измеряются на высoте 2 м в тени вдали oт зданий и деревьев.
Скoрoсть ветра измеряется на высoте 10 м (на урoвне рoста челoвека скoрoсть ветра ниже в 1.5-2 раза). Если метеoстанция нахoдится в гoрoде или в лесу, тo скoрoсть ветра занижена на 2-4 м/с пo сравнению с oткрытым местoм. Скoрoсть ветра над акватoриями крупных рек и oзёр, а также на вершинах хoлмoв на 2-5 м/с выше, чем в oбычных услoвиях.
Атмoсфернoе давление в разных тoчках местнoсти мoжет значительнo oтличаться oт давления на метеoстанции, в зависимoсти oт услoвий рельефа (при пoдъёме на 10 м давление пoнижается примернo на 1 мм рт.ст.).